Simultaneous Nadir Overpasses (SNOs) Predictions

Prediction of SNOs between AQUA and GOES-15 Satellite Orbit:

Table of predicted SNOs for the next 14.0 days since TLE Epoch: 2/12/2016
Index Date Time (AQUA) AQUA Lat,Lon GOES-15 Lat,Lon Distance(km) Time Diff (sec)
1 02/13/2016 10:31:58 -0.32,-134.12 -0.06,-135.36 140.70 80
2 02/13/2016 22:53:22 -0.78,-139.31 0.05,-135.31 454.53 80
3 02/15/2016 10:19:50 -0.97,-131.18 -0.05,-135.35 475.50 80
4 02/15/2016 22:41:14 -0.18,-136.36 0.05,-135.31 119.87 80
5 02/17/2016 22:29:05 0.43,-133.41 0.04,-135.30 214.47 80
6 02/18/2016 10:50:21 0.62,-138.58 -0.04,-135.34 367.71 80
7 02/20/2016 10:38:11 0.05,-135.61 -0.03,-135.32 33.66 80
8 02/22/2016 10:26:03 -0.60,-132.67 -0.03,-135.31 300.31 80
9 02/22/2016 22:47:26 -0.54,-137.85 0.03,-135.26 295.07 80
10 02/24/2016 22:35:16 0.07,-134.90 0.03,-135.24 38.56 80




NCC Satellite Simultaneous Nadir Overpasses (SNOs) Prediction Service
